Regional Weather Roundup
Issued by NWS

Home | Current Version | Previous Version | Graphics & Text | Print | Product List | Glossary On
Versions: 1 2 3 4 5 6 7 8 9 10 11 12 13 14 15 16 17 18 19 20 21 22 23 24 25 26 27 28 29 30 31 32 33 34 35 36 37 38 39 40 41 42 43 44 45 46 47 48 49 50
280
ASUS43 KLSX 171007
RWRMO

WEATHER SUMMARY FOR MISSOURI
NATIONAL WEATHER SERVICE SPRINGFIELD MO
500 AM CDT THU AUG 17 2017

NOTE: "FAIR" INDICATES FEW OR NO CLOUDS BELOW 12,000 FEET WITH NO
       SIGNIFICANT WEATHER AND/OR OBSTRUCTIONS TO VISIBILITY.
       CURRENT SKY AND/OR WEATHER CONDITIONS ARE NOT AVAILABLE FOR
       CHILLICOTHE AND FARMINGTON.

MOZ001>031-035>038-043-044-053-054-171100-
...NORTHERN AND WESTERN MISSOURI...

CITY           SKY/WX    TMP DP  RH WIND       PRES   REMARKS
KANSAS CTY INT CLOUDY    66  64  93 W6        29.88R
KANSAS C DTWN  CLOUDY    70  68  93 W3        29.87R
LEE`S SUMMIT   CLOUDY    68  68 100 W8        29.89R
ST JOSEPH      FOG       63  62  97 W5        29.87S VSB 1
CHILLICOTHE      N/A     68  68 100 SW3       29.85R
KIRKSVILLE     CLOUDY    69  67  93 SW7       29.83R

$$
MOZ066>068-077>081-088>096-101>105-171100-
...SOUTHWEST MISSOURI...

CITY           SKY/WX    TMP DP  RH WIND       PRES   REMARKS
SPRINGFIELD    CLOUDY    67  67 100 S6        29.93R
JOPLIN         CLOUDY    69  69 100 SW5       29.92S
BRANSON        LGT RAIN  68  66  94 S6        29.94F

$$
MOZ032>034-039>042-045>050-055>058-069>072-171100-
...CENTRAL MISSOURI...

CITY           SKY/WX    TMP DP  RH WIND       PRES   REMARKS
COLUMBIA       CLOUDY    68  67  96 SW9       29.88R
JEFFERSON CITY CLOUDY    69  69 100 S8        29.88R
ROLLA          CLOUDY    65  65 100 SW7       29.93R
SEDALIA        PTCLDY    69  69 100 SW12      29.89R
WHITEMAN AFB   MOCLDY    69  69 100 SW6       29.87R
WARRENSBURG    CLOUDY    68  66  94 SW5       29.88R
OSAGE BEACH    CLOUDY    68  67  96 SW7       29.92R

$$
MOZ051-052-059>065-171100-
...EAST CENTRAL MISSOURI...

CITY           SKY/WX    TMP DP  RH WIND       PRES   REMARKS
ST LOUIS INTL  CLOUDY    69  68  96 SW5       29.87R
SPIRIT OF STL  CLOUDY    69  68  96 W8        29.86R
ST CHARLES     CLOUDY    69  68  96 W8        29.86R

$$
MOZ072>076-082>087-097>100-106>115-171100-
...SOUTH CENTRAL AND SOUTHEAST MISSOURI...

CITY           SKY/WX    TMP DP  RH WIND       PRES   REMARKS
CAPE GIRARDEAU CLOUDY    77  74  90 W14G23    29.90R
FARMINGTON     PTCLDY    67  67 100 SW5       29.91R
POPLAR BLUFF   CLOUDY    74  73  97 CALM      29.91R
WEST PLAINS    LGT RAIN  69  67  93 W6        29.97R

$$



USA.gov is the U.S. government's official web portal to all federal, state and local government web resources and services.